Location: Il Ritiro
(43.4167°N, 13.1333°E)
Time: 07:41:32
(UTC+00:00)

Nimbus 7 Rocket - Pass Details

Date: 05 July 2020
Orbit: 922 x 965 km, 99.4° (Epoch: 05 August)

Event Time Altitude Azimuth Distance (km) Brightness Sun altitude
Rises 22:12:25 0° 16° (NNE) 3,612 8.4 -22.5°
Reaches altitude 10° 22:14:54 10° 19° (NNE) 2,657 7.5 -22.6°
Maximum altitude 22:20:49 70° 103° (ESE) 990 4.4 -22.9°
Enters shadow 22:22:22 49° 167° (SSE) 1,180 4.5 -22.9°
